Change the Weather History Date:

Sunday, October 6, 2013

  Actual Average Record
Temperature  
Mean Temperature 48 °F -  
Max Temperature 53 °F 68 °F 93 °F (1963)
Min Temperature 42 °F 43 °F 24 °F (2000)
Degree Days  
Heating Degree Days 18    
Moisture  
Dew Point 43 °F    
Average Humidity 87    
Maximum Humidity 100    
Minimum Humidity 61    
Precipitation  
Precipitation 0.01 in - - ()
Sea Level Pressure  
Sea Level Pressure 29.89 in    
Wind  
Wind Speed 14 mph (WNW)    
Max Wind Speed 24 mph    
Max Gust Speed 30 mph    
Visibility 10 miles    
Events Rain    
Averages and records for this station are not official NWS values.
T = Trace of Precipitation, MM = Missing Value Source: NWS Daily Summary

Daily Weather History Graph

Daily Weather History Graph

Search for Another Location

Airport or City:

Trip Planner

Search our weather history database for the weather conditions in past years. The results will help you decide how hot, cold, wet, or windy it might be!

Date:

Astronomy

Oct. 06, 2013 Rise Set
Actual Time 7:28 AM CDT 6:59 PM CDT
Civil Twilight 7:00 AM CDT 7:26 PM CDT
Nautical Twilight 6:28 AM CDT 7:58 PM CDT
Astronomical Twilight 5:56 AM CDT 8:30 PM CDT
Moon 9:15 AM CDT (10/6) 7:57 PM CDT (10/6)
Length of Visible Light 12h 25m
Length of Day
11h 30m
Waxing Crescent, 3% of the Moon is Illuminated
Oct 6
Waxing Crescent
Oct 11
First Quarter
Oct 18
Full
Oct 26
Last Quarter
Nov 3
New

Hourly Weather History & Observations

Time (CDT) Temp. Windchill Dew Point Humidity Pressure Visibility Wind Dir Wind Speed Gust Speed Precip Events Conditions
12:15 AM 42.3 °F 35.9 °F 40.8 °F 95% 29.78 in 10.0 mi West 11.5 mph 18.4 mph N/A   Drizzle
12:35 AM 42.3 °F 34.1 °F 40.5 °F 93% 29.78 in 10.0 mi West 17.3 mph 23.0 mph N/A   Light Drizzle
12:55 AM 42.4 °F 34.4 °F 40.6 °F 93% 29.78 in 10.0 mi WSW 17.3 mph 24.2 mph N/A   Light Drizzle
1:15 AM 42.8 °F 34.5 °F 41.0 °F 93% 29.78 in 10.0 mi West 18.4 mph 25.3 mph N/A Rain Light Rain
1:35 AM 42.6 °F 34.6 °F 41.7 °F 97% 29.78 in 7.0 mi West 17.3 mph 21.9 mph 0.01 in   Drizzle
1:55 AM 42.4 °F 35.0 °F 42.4 °F 100% 29.78 in 10.0 mi West 15.0 mph 21.9 mph 0.01 in Rain Rain
2:15 AM 42.8 °F 35.4 °F 42.8 °F 100% 29.78 in 10.0 mi West 15.0 mph 19.6 mph N/A   Light Drizzle
2:35 AM 43.2 °F 36.6 °F 43.2 °F 100% 29.78 in 10.0 mi WNW 12.7 mph 19.6 mph N/A Rain Light Rain
2:55 AM 43.5 °F 37.1 °F 43.0 °F 98% 29.78 in 10.0 mi NW 12.7 mph 18.4 mph N/A   Overcast
3:15 AM 43.7 °F 37.3 °F 43.2 °F 98% 29.79 in 10.0 mi NW 12.7 mph - N/A   Overcast
3:35 AM 43.7 °F 37.3 °F 42.8 °F 97% 29.79 in 10.0 mi NW 12.7 mph 20.7 mph N/A   Overcast
3:55 AM 43.7 °F 36.9 °F 42.3 °F 95% 29.81 in 10.0 mi WNW 13.8 mph 20.7 mph N/A   Overcast
4:15 AM 43.7 °F 37.3 °F 42.4 °F 95% 29.81 in 10.0 mi NW 12.7 mph - N/A   Overcast
4:35 AM 43.9 °F 38.8 °F 42.8 °F 96% 29.81 in 10.0 mi NW 9.2 mph - N/A   Overcast
4:55 AM 44.1 °F 38.1 °F 43.3 °F 97% 29.82 in 10.0 mi WNW 11.5 mph - N/A   Overcast
5:15 AM 44.6 °F 39.2 °F 43.3 °F 95% 29.82 in 10.0 mi WNW 10.4 mph 16.1 mph N/A   Overcast
5:35 AM 44.6 °F 39.7 °F 43.7 °F 97% 29.82 in 10.0 mi West 9.2 mph - N/A   Overcast
5:55 AM 44.6 °F 39.7 °F 44.1 °F 98% 29.82 in 10.0 mi West 9.2 mph - N/A   Overcast
6:15 AM 45.0 °F 38.2 °F 44.1 °F 97% 29.84 in 10.0 mi WNW 15.0 mph 18.4 mph N/A   Overcast
6:35 AM 44.8 °F 38.0 °F 43.2 °F 94% 29.85 in 10.0 mi WNW 15.0 mph - N/A   Overcast
6:55 AM 44.6 °F 38.8 °F 43.0 °F 94% 29.85 in 10.0 mi WNW 11.5 mph - N/A   Overcast
7:15 AM 44.6 °F 38.8 °F 43.0 °F 94% 29.85 in 10.0 mi WNW 11.5 mph 18.4 mph N/A   Overcast
7:35 AM 44.6 °F 38.8 °F 43.0 °F 94% 29.85 in 10.0 mi West 11.5 mph - N/A   Overcast
7:55 AM 44.6 °F 39.2 °F 43.3 °F 95% 29.85 in 10.0 mi West 10.4 mph - N/A   Overcast
8:15 AM 45.0 °F 39.7 °F 43.9 °F 96% 29.85 in 7.0 mi West 10.4 mph - N/A   Overcast
8:35 AM 45.5 °F 39.9 °F 44.6 °F 97% 29.86 in 10.0 mi West 11.5 mph 16.1 mph N/A   Overcast
8:55 AM 46.0 °F 40.2 °F 45.0 °F 96% 29.86 in 10.0 mi West 12.7 mph 17.3 mph N/A   Overcast
9:15 AM 47.1 °F - 45.7 °F 95% 29.86 in 10.0 mi WNW 11.5 mph 17.3 mph N/A   Overcast
9:35 AM 48.0 °F - 45.9 °F 92% 29.86 in 10.0 mi WNW 11.5 mph - N/A   Overcast
9:55 AM 48.4 °F - 45.7 °F 90% 29.86 in 10.0 mi WNW 17.3 mph 23.0 mph N/A   Overcast
10:15 AM 48.7 °F - 46.4 °F 92% 29.87 in 10.0 mi WNW 20.7 mph 25.3 mph N/A   Overcast
10:35 AM 48.2 °F - 46.8 °F 95% 29.87 in 5.0 mi WNW 18.4 mph 25.3 mph N/A   Overcast
10:55 AM 47.8 °F - 46.4 °F 95% 29.88 in 10.0 mi WNW 23.0 mph 26.5 mph N/A   Overcast
11:15 AM 48.4 °F - 45.7 °F 90% 29.88 in 10.0 mi WNW 19.6 mph 26.5 mph N/A   Overcast
11:35 AM 48.2 °F - 46.0 °F 92% 29.89 in 10.0 mi WNW 18.4 mph 24.2 mph N/A   Overcast
11:55 AM 48.7 °F - 44.2 °F 84% 29.89 in 10.0 mi WNW 23.0 mph 29.9 mph N/A   Overcast
12:15 PM 49.1 °F - 44.4 °F 84% 29.88 in 10.0 mi WNW 19.6 mph 25.3 mph N/A   Overcast
12:35 PM 49.6 °F - 44.2 °F 82% 29.89 in 10.0 mi NW 20.7 mph 27.6 mph N/A   Overcast
12:55 PM 49.1 °F - 44.2 °F 83% 29.89 in 10.0 mi WNW 24.2 mph 28.8 mph N/A   Overcast
1:15 PM 48.7 °F - 44.1 °F 84% 29.90 in 10.0 mi WNW 20.7 mph 28.8 mph N/A   Overcast
1:35 PM 49.5 °F - 44.1 °F 82% 29.89 in 10.0 mi WNW 20.7 mph 27.6 mph N/A   Overcast
1:55 PM 48.7 °F - 44.1 °F 84% 29.90 in 10.0 mi WNW 23.0 mph 29.9 mph N/A   Light Drizzle
2:15 PM 48.4 °F - 43.9 °F 84% 29.90 in 10.0 mi WNW 20.7 mph 28.8 mph N/A   Overcast
2:35 PM 48.6 °F - 43.7 °F 83% 29.89 in 10.0 mi WNW 18.4 mph 27.6 mph N/A   Overcast
2:55 PM 48.9 °F - 43.7 °F 82% 29.91 in 10.0 mi NW 18.4 mph 26.5 mph N/A   Overcast
3:15 PM 48.9 °F - 44.4 °F 84% 29.91 in 10.0 mi WNW 19.6 mph 27.6 mph N/A   Overcast
3:35 PM 49.1 °F - 45.3 °F 87% 29.91 in 10.0 mi NW 17.3 mph - N/A   Overcast
3:55 PM 49.1 °F - 45.7 °F 88% 29.91 in 10.0 mi WNW 15.0 mph 23.0 mph N/A   Overcast
4:15 PM 50.0 °F - 45.9 °F 86% 29.91 in 10.0 mi NW 12.7 mph 19.6 mph N/A   Overcast
4:35 PM 50.9 °F - 45.9 °F 83% 29.91 in 10.0 mi NW 11.5 mph - N/A   Overcast
4:55 PM 51.3 °F - 45.5 °F 81% 29.91 in 10.0 mi NW 10.4 mph 17.3 mph N/A   Overcast
5:15 PM 51.4 °F - 45.5 °F 80% 29.92 in 10.0 mi NW 6.9 mph - N/A   Overcast
5:35 PM 51.8 °F - 45.5 °F 79% 29.92 in 10.0 mi NNW 6.9 mph - N/A   Overcast
5:55 PM 52.7 °F - 45.9 °F 78% 29.93 in 10.0 mi NNW 5.8 mph - N/A   Overcast
6:15 PM 53.1 °F - 46.0 °F 77% 29.93 in 10.0 mi WNW 4.6 mph - N/A   Scattered Clouds
6:35 PM 52.7 °F - 46.0 °F 78% 29.93 in 10.0 mi Calm Calm - N/A   Clear
6:55 PM 51.8 °F - 44.1 °F 75% 29.94 in 10.0 mi WNW 8.1 mph - N/A   Clear
7:15 PM 52.9 °F - 39.7 °F 61% 29.96 in 10.0 mi WNW 9.2 mph - N/A   Clear
7:35 PM 51.8 °F - 39.0 °F 62% 29.96 in 10.0 mi West 9.2 mph - N/A   Clear
7:55 PM 50.4 °F - 38.7 °F 64% 29.97 in 10.0 mi West 5.8 mph - N/A   Clear
8:15 PM 49.5 °F - 38.5 °F 66% 29.97 in 10.0 mi WNW 10.4 mph - N/A   Clear
8:35 PM 50.9 °F - 38.3 °F 62% 29.97 in 10.0 mi WNW 10.4 mph - N/A   Clear
8:55 PM 48.6 °F - 38.7 °F 69% 29.98 in 10.0 mi WNW 9.2 mph - N/A   Clear
9:15 PM 46.6 °F - 38.5 °F 73% 29.99 in 10.0 mi WNW 3.5 mph - N/A   Clear
9:35 PM 44.6 °F 41.4 °F 38.3 °F 79% 30.00 in 10.0 mi West 5.8 mph - N/A   Clear
9:55 PM 44.6 °F 42.2 °F 38.5 °F 79% 30.00 in 10.0 mi West 4.6 mph - N/A   Clear
10:15 PM 45.1 °F 41.4 °F 38.8 °F 79% 30.01 in 10.0 mi West 6.9 mph - N/A   Clear
10:35 PM 44.8 °F 39.4 °F 38.8 °F 80% 30.01 in 10.0 mi West 10.4 mph - N/A   Clear
10:55 PM 46.6 °F - 38.7 °F 74% 30.02 in 10.0 mi West 9.2 mph - N/A   Clear
11:15 PM 45.1 °F 40.8 °F 38.7 °F 78% 30.02 in 10.0 mi West 8.1 mph - N/A   Clear
11:35 PM 44.8 °F 40.4 °F 38.7 °F 79% 30.01 in 10.0 mi West 8.1 mph - N/A   Clear
11:55 PM 43.2 °F 39.7 °F 38.5 °F 84% 30.02 in 10.0 mi West 5.8 mph - N/A   Clear